Tracking 27097 objects as of 30-Mar-2023
HD Live streaming from Space Station
objects crossing your sky now

STARLINK-1781

Track STARLINK-1781 now!
10-day predictions
STARLINK-1781 is classified as:


NORAD ID: 46685
Int'l Code: 2020-073R
Perigee: 553.3 km
Apogee: 555.0 km
Inclination: 53.1 °
Period: 95.6 minutes
Semi major axis: 6925 km
RCS: Unknown
Launch date: October 18, 2020
Source: United States (US)
Launch site: AIR FORCE EASTERN TEST RANGE (AFETR)
Your satellite tracking list
Your tracking list is empty




NASA's NSSDC Master Catalog

Two Line Element Set (TLE):
1 46685U 20073R   23088.27795666  .00036659  00000-0  24635-2 0  9991
2 46685  53.0558  48.8129 0001250  99.6125 260.5005 15.06455407134675
Source of the keplerian elements: AFSPC